Brownsville South Padre Island International Airport Brownsville US
ICAO: KBRO
IATA: BRO
Category: Medium
Scheduled Services: Yes

Elevation: 22 ft
TransAlt. 18000 ft.

Airport Communications:
VALLEY APP/DEP:119.5
ATIS:128.55
CTAF:118.9
GND:121.9
SAN ANGELO RDO:122.3
TWR:118.9
UNICOM:122.95

KBRO Zoom In..

If Map Doesn't Load, Click Here

Runways:

(A) RW 13L length 3000 ft width 75 ft
---- / hdg 128

(B) RW 13R length 7399 ft width 150 ft
ILS 110.30 / hdg 128

(C) RW 17 length 6000 ft width 150 ft
---- / hdg 175

(D) RW 31L length 7399 ft width 150 ft
---- / hdg 308

(E) RW 31R length 3000 ft width 75 ft
---- / hdg 308

(F) RW 35 length 6000 ft width 150 ft
---- / hdg 355

Location; KBRO
Day. 21 / Time. 12.53 Zulu
* Altimeter: 29.90
* Temperature: 27° c. 80.6°f.
* Wind from: 150° Speed 04 kn.
Dewpoint: 26° c.
Visibility: 10 Statute Miles.
Clouds: Clear (automated report).

KBRO 211253Z 15004KT 10SM CLR 27/26 A2990 RMK AO2 SLP124 T02720261


Wind From 150°
Speed 04 kn.

 
 
jpsmedia.com for Web Design worldairports.se 2018   terms of use